カタログに戻る

DELTA 1 DEB

運用中PO
NORAD 26826·DEBRIS·🇺🇸 United States

打ち上げ Jun 12, 1975 から Vandenberg Space Force Base

Loading…

次のパス (今後24時間)

TLE

最新Source: Space-Track

元期: Sep 14, 2026, 07:42 UTC

1 26826U 75052KE  26257.32127318  .00000432  00000-0  12970-2 0  9992
2 26826  99.6375 194.1671 0299016 300.0701 215.6555 12.98730641657156

AllMySatでDELTA 1 DEBをリアルタイム追跡

Download on the App Store